Zurück zum Katalog

COSMOS 1051

AktivMilitärLEO
NORAD 11128·PAYLOAD·🇷🇺 Russia

Gestartet Dec 5, 1978 von Plesetsk Cosmodrome

Loading…

Nächste Überflüge (nächste 24 Stunden)

TLE

AktuellSource: Space-Track

Epoche: Sep 14, 2026, 13:46 UTC

1 11128U 78109A   26257.57406272 -.00000010  00000-0  39577-4 0  9990
2 11128  74.0157 293.9129 0059060 253.8936 274.6682 12.55968454190341

Verfolge COSMOS 1051 in Echtzeit mit AllMySat

Download on the App Store